This demonstration page uses our WeatherBlox Daily Observations layout. Learn more.

Left ArrowRight Arrow

38.80484, -77.04692

Hourly Observations for February 29, 2016

Temp ( °F °C ) Dew Point ( °F °C ) Humidity (%) Winds ( mph kmh ) Pressure ( in mb ) Visibility ( mi km ) Precip ( " mm )
12:52 am 00:52 Clear 53 11.7 31 -0.6 43 43 SSW 12 19 29.78 1008 10 16 0.00 0.00
1:52 am 01:52 Clear 53 11.7 31 -0.6 43 43 SSW 14 22 29.75 1007 10 16 0.00 0.00
2:52 am 02:52 Clear 53 11.7 32 0 45 45 SSW 16 26 29.71 1006 10 16 0.00 0.00
3:52 am 03:52 Clear 53 11.7 32 0 45 45 SSW 15 24 29.69 1005 10 16 0.00 0.00
4:52 am 04:52 Mostly Cloudy 53 11.7 33 0.6 47 47 SSW 15 24 29.68 1005 10 16 0.00 0.00
5:52 am 05:52 Mostly Cloudy 53 11.7 33 0.6 47 47 SSW 14 22 29.67 1005 10 16 0.00 0.00
6:52 am 06:52 Mostly Cloudy 53 11.7 33 0.6 47 47 SSW 13 20 29.67 1005 10 16 0.00 0.00
7:52 am 07:52 Mostly Cloudy 54 12.2 33 0.6 45 45 SSW 13 20 29.69 1006 10 16 0.00 0.00
8:52 am 08:52 Cloudy 55 12.8 34 1.1 45 45 SSW 12 19 29.71 1006 10 16 0.00 0.00
9:52 am 09:52 Mostly Cloudy 58 14.4 34 1.1 41 41 WSW 7 11 29.73 1007 10 16 0.00 0.00
10:52 am 10:52 Partly Cloudy 63 17.2 36 2.2 37 37 W 8 13 29.74 1007 10 16 0.00 0.00
11:52 am 11:52 Partly Cloudy 64 17.8 39 3.9 40 40 WNW 16 26 29.77 1008 10 16 0.00 0.00
12:52 pm 12:52 Partly Cloudy 64 17.8 37 2.8 37 37 WNW 17 28 29.79 1009 10 16 0.00 0.00
1:52 pm 13:52 Partly Cloudy 64 17.8 36 2.2 35 35 NW 23 37 29.82 1010 10 16 0.00 0.00
2:52 pm 14:52 Mostly Sunny 63 17.2 34 1.1 34 34 NW 18 30 29.86 1011 10 16 0.00 0.00
3:52 pm 15:52 Mostly Sunny 62 16.7 33 0.6 34 34 WNW 15 24 29.89 1012 10 16 0.00 0.00
4:52 pm 16:52 Mostly Sunny 61 16.1 32 0 34 34 NW 12 19 29.91 1013 10 16 0.00 0.00
5:52 pm 17:52 Mostly Sunny 59 15 30 -1.1 33 33 NNW 9 15 29.93 1014 10 16 0.00 0.00
6:52 pm 18:52 Clear 56 13.3 32 0 40 40 N 5 7 29.97 1015 10 16 0.00 0.00
7:52 pm 19:52 Clear 55 12.8 31 -0.6 40 40 NW 6 9 29.99 1016 10 16 0.00 0.00
8:52 pm 20:52 Clear 55 12.8 28 -2.2 35 35 W 3 6 30.01 1016 10 16 0.00 0.00
9:52 pm 21:52 Clear 54 12.2 28 -2.2 37 37 WSW 6 9 30.02 1017 10 16 0.00 0.00
10:52 pm 22:52 Clear 49 9.4 36 2.2 61 61 Calm 30.04 1017 10 16 0.00 0.00
11:52 pm 23:52 Clear 45 7.2 34 1.1 66 66 SSW 3 6 30.04 1017 10 16 0.00 0.00

Powered by AerisWeather